Location: Devargunta
(16.7631°N, 80.9077°E)
Time: 09:43:22
(UTC+00:00)

Meteor 1-24 Rocket - Pass Details

Date: 19 January 2021
Orbit: 791 x 927 km, 81.3° (Epoch: 01 March)

Event Time Altitude Azimuth Distance (km) Brightness Sun altitude
Exits shadow 23:28:49 - 360° (N) 2,962 6.4 -23.7°
Reaches altitude 10° 23:30:09 10° 2° (N) 2,451 6.0 -23.3°
Maximum altitude 23:35:41 67° 84° (E) 931 4.0 -22.1°
Drops below altitude 10° 23:41:24 10° 166° (SSE) 2,540 6.5 -20.7°
Sets 23:43:54 0° 169° (S) 3,497 7.3 -20.2°
